Terug naar catalogus

STARLINK-34700

ActiefCommunicatieVLEO
NORAD 64922·PAYLOAD·🇺🇸 United States

Gelanceerd Jul 26, 2025 vanaf Cape Canaveral Space Force Station

Loading…

Volgende Passages (komende 24 uur)

TLE

VersSource: CelesTrak SupGP

Epoch: Sep 14, 2026, 21:12 UTC

1 64922C 25157U   26257.88381944  .00000375  00000+0  11063-4 0  2576
2 64922  53.1583 184.2403 0001346  91.3473  46.3793 15.34408086    15

Volg STARLINK-34700 in realtime met AllMySat

Download on the App Store